Погода в Хамаматюрте

Россия / Республика Дагестан     43°36′23″N   46°30′08″E
темп.,
°C
ветер,
м/с
пор.,
м/с
влажн.,
%
обл.,
%
осадки,
мм/ч
давл.,
гПа
погр.,
м
14 апреля, ср
ср1400:00+9зюз228111 0.0 101720
03:00+9з368899 0.0 1016113
06:00+9з499164 0.0 1016227
09:00+15з6866100 0.0 1017924
12:00+15з7866100 0.2 10161113
15:00+14зюз5966100 0.2 1017602
18:00+12зюз4883100 3.4 1017247
21:00+11з4783100 3.4 1017119
15 апреля, чт
чт1500:00+10з478660 0.0 1017131
03:00+9зюз4987100 0.0 1017177
06:00+9зюз5108413 0.0 1018251
09:00+16з68580 0.0 1018889
12:00+20зсз57420 0.0 10161614
15:00+21сз4533100 0.0 10161994
18:00+17с224830 0.0 101617
21:00+14зсз1150100 0.0 101710
16 апреля, пт
пт1600:00+12зюз2255100 0.0 101710
03:00+11зсз225868 0.0 101710
06:00+11зюз116318 0.0 101810
09:00+18ссв1147100 0.0 1019484
12:00+21всв333871 0.0 10171228
15:00+22в55345 0.0 10161860
18:00+16в510540 0.0 1017252
21:00+12в4106025 0.0 1017172
17 апреля, сб
сб1700:00+11в226282 0.0 101730
03:00+11ююз116799 0.0 101711
06:00+11зсз347158 0.0 101866
09:00+16зсз6753100 0.0 1020779
12:00+20зсз5544100 0.0 10191658
15:00+18сз7761100 0.0 1020856
18:00+15сз4770100 0.1 1022374
21:00+13зсз2486100 0.5 1023250
18 апреля, вс
вс1800:00+13зсз1288100 0.0 102272
03:00+12св228789 0.0 102151
06:00+12всв2385100 0.0 1021136
09:00+15всв2372100 0.0 1021712
12:00+17в4462100 0.1 10191297
15:00+18вюв455898 0.1 10181366
18:00+15в5868100 0.0 1019325
21:00+12в487371 0.0 1019238